Time,TemperatureF,DewpointF,PressureIn,WindDirection,WindDirectionDegrees,WindSpeedMPH,WindSpeedGustMPH,Humidity,HourlyPrecipIn,Conditions,Clouds,dailyrainin,SoftwareType,DateUTC
2013-03-03 00:02:00,21.0,19.0,29.82,WSW,240,5.0,-999.0,92,-99.99,,,-99.99,,2013-03-03 05:02:00,
2013-03-03 00:11:00,21.0,19.0,29.82,West,270,5.0,-999.0,92,-99.99,,,-99.99,,2013-03-03 05:11:00,
2013-03-03 00:22:00,21.0,19.0,29.82,West,260,6.0,-999.0,92,-99.99,,,-99.99,,2013-03-03 05:22:00,
2013-03-03 00:32:00,21.0,19.0,29.81,West,260,5.0,-999.0,92,-99.99,,,-99.99,,2013-03-03 05:32:00,
2013-03-03 00:42:00,21.0,19.0,29.81,West,260,6.0,-999.0,92,-99.99,,,-99.99,,2013-03-03 05:42:00,
2013-03-03 00:52:00,21.0,19.0,29.82,West,260,5.0,-999.0,92,-99.99,,,-99.99,,2013-03-03 05:52:00,
2013-03-03 01:02:00,21.0,19.0,29.82,West,260,5.0,-999.0,92,-99.99,,,-99.99,,2013-03-03 06:02:00,
2013-03-03 01:11:00,21.0,19.0,29.82,West,270,6.0,-999.0,92,-99.99,,,-99.99,,2013-03-03 06:11:00,
2013-03-03 01:21:00,21.0,19.0,29.82,West,280,6.0,-999.0,92,-99.99,,,-99.99,,2013-03-03 06:21:00,
2013-03-03 01:32:00,21.0,19.0,29.81,WNW,290,5.0,-999.0,92,-99.99,,,-99.99,,2013-03-03 06:32:00,
2013-03-03 01:42:00,21.0,19.0,29.82,WNW,300,3.0,-999.0,92,-99.99,,,-99.99,,2013-03-03 06:42:00,
2013-03-03 01:52:00,21.0,19.0,29.81,WNW,300,5.0,-999.0,92,-99.99,,,-99.99,,2013-03-03 06:52:00,
2013-03-03 02:01:00,21.0,19.0,29.81,WNW,300,5.0,-999.0,92,-99.99,,,-99.99,,2013-03-03 07:01:00,
2013-03-03 02:11:00,19.0,19.0,29.81,WNW,300,5.0,-999.0,100,-99.99,,,-99.99,,2013-03-03 07:11:00,
2013-03-03 02:21:00,19.0,19.0,29.80,West,280,6.0,-999.0,100,-99.99,,,-99.99,,2013-03-03 07:21:00,
2013-03-03 02:32:00,19.0,19.0,29.80,WNW,290,7.0,-999.0,100,-99.99,,,-99.99,,2013-03-03 07:32:00,
2013-03-03 02:42:00,19.0,18.0,29.80,West,280,6.0,-999.0,92,-99.99,,,-99.99,,2013-03-03 07:42:00,
2013-03-03 02:51:00,19.0,18.0,29.80,West,280,6.0,-999.0,92,-99.99,,,-99.99,,2013-03-03 07:51:00,
2013-03-03 03:01:00,19.0,18.0,29.80,West,280,6.0,-999.0,92,-99.99,,,-99.99,,2013-03-03 08:01:00,
2013-03-03 03:11:00,19.0,18.0,29.80,WNW,290,6.0,-999.0,92,-99.99,,,-99.99,,2013-03-03 08:11:00,
2013-03-03 03:21:00,19.0,18.0,29.80,WNW,290,6.0,-999.0,92,-99.99,,,-99.99,,2013-03-03 08:21:00,
2013-03-03 03:31:00,19.0,18.0,29.79,West,270,6.0,-999.0,92,-99.99,,,-99.99,,2013-03-03 08:31:00,
2013-03-03 03:41:00,19.0,18.0,29.79,West,270,7.0,-999.0,92,-99.99,,,-99.99,,2013-03-03 08:41:00,
2013-03-03 03:53:00,19.0,18.0,29.80,West,270,6.0,-999.0,92,-99.99,,,-99.99,,2013-03-03 08:53:00,
2013-03-03 04:01:00,19.0,18.0,29.80,West,270,6.0,-999.0,92,-99.99,,,-99.99,,2013-03-03 09:01:00,
2013-03-03 04:11:00,19.0,18.0,29.80,West,280,7.0,-999.0,92,-99.99,,,-99.99,,2013-03-03 09:11:00,
2013-03-03 04:21:00,19.0,18.0,29.80,West,280,6.0,-999.0,92,-99.99,,,-99.99,,2013-03-03 09:21:00,
2013-03-03 04:32:00,19.0,18.0,29.80,West,270,5.0,-999.0,92,-99.99,,,-99.99,,2013-03-03 09:32:00,
2013-03-03 04:41:00,19.0,18.0,29.80,West,270,6.0,-999.0,92,-99.99,,,-99.99,,2013-03-03 09:41:00,
2013-03-03 04:51:00,19.0,18.0,29.80,West,260,6.0,-999.0,92,-99.99,,,-99.99,,2013-03-03 09:51:00,
2013-03-03 05:01:00,19.0,18.0,29.80,West,260,6.0,-999.0,92,-99.99,,,-99.99,,2013-03-03 10:01:00,
2013-03-03 05:11:00,18.0,18.0,29.80,West,260,6.0,-999.0,100,-99.99,,,-99.99,,2013-03-03 10:11:00,
2013-03-03 05:21:00,18.0,18.0,29.80,West,260,5.0,-999.0,100,-99.99,,,-99.99,,2013-03-03 10:21:00,
2013-03-03 05:32:00,18.0,16.0,29.80,West,270,5.0,-999.0,92,-99.99,,,-99.99,,2013-03-03 10:32:00,
2013-03-03 05:42:00,18.0,18.0,29.80,West,260,5.0,-999.0,100,-99.99,,,-99.99,,2013-03-03 10:42:00,
2013-03-03 05:52:00,18.0,18.0,29.80,WSW,250,6.0,-999.0,100,-99.99,,,-99.99,,2013-03-03 10:52:00,
2013-03-03 06:01:00,18.0,18.0,29.80,WSW,250,6.0,-999.0,100,-99.99,,,-99.99,,2013-03-03 11:01:00,
2013-03-03 06:11:00,18.0,18.0,29.81,WSW,250,6.0,-999.0,100,-99.99,,,-99.99,,2013-03-03 11:11:00,
2013-03-03 06:21:00,18.0,16.0,29.80,WSW,240,6.0,-999.0,92,-99.99,,,-99.99,,2013-03-03 11:21:00,
2013-03-03 06:32:00,18.0,18.0,29.81,WSW,240,6.0,-999.0,100,-99.99,,,-99.99,,2013-03-03 11:32:00,
2013-03-03 06:42:00,18.0,18.0,29.81,WSW,240,6.0,-999.0,100,-99.99,,,-99.99,,2013-03-03 11:42:00,
2013-03-03 06:52:00,18.0,18.0,29.81,WSW,250,5.0,-999.0,100,-99.99,,,-99.99,,2013-03-03 11:52:00,
2013-03-03 07:02:00,18.0,18.0,29.81,WSW,250,5.0,-999.0,100,-99.99,,,-99.99,,2013-03-03 12:02:00,
2013-03-03 07:11:00,18.0,18.0,29.81,WSW,250,6.0,-999.0,100,-99.99,,,-99.99,,2013-03-03 12:11:00,
2013-03-03 07:21:00,18.0,18.0,29.82,WSW,250,6.0,-999.0,100,-99.99,,,-99.99,,2013-03-03 12:21:00,
2013-03-03 07:32:00,18.0,18.0,29.82,WSW,250,6.0,-999.0,100,-99.99,,,-99.99,,2013-03-03 12:32:00,
2013-03-03 07:43:00,18.0,18.0,29.82,WSW,250,6.0,-999.0,100,-99.99,,,-99.99,,2013-03-03 12:43:00,
2013-03-03 07:52:00,18.0,18.0,29.82,WSW,250,6.0,-999.0,100,-99.99,,,-99.99,,2013-03-03 12:52:00,
2013-03-03 08:02:00,18.0,18.0,29.82,WSW,250,6.0,-999.0,100,-99.99,,,-99.99,,2013-03-03 13:02:00,
2013-03-03 08:11:00,19.0,18.0,29.82,WSW,250,7.0,-999.0,92,-99.99,,,-99.99,,2013-03-03 13:11:00,
2013-03-03 08:22:00,19.0,18.0,29.81,WSW,250,6.0,-999.0,92,-99.99,,,-99.99,,2013-03-03 13:22:00,
2013-03-03 08:32:00,19.0,18.0,29.82,West,270,6.0,-999.0,92,-99.99,,,-99.99,,2013-03-03 13:32:00,
2013-03-03 08:42:00,19.0,18.0,29.82,West,260,7.0,-999.0,92,-99.99,,,-99.99,,2013-03-03 13:42:00,
2013-03-03 08:52:00,19.0,18.0,29.81,West,280,7.0,-999.0,92,-99.99,,,-99.99,,2013-03-03 13:52:00,
2013-03-03 09:02:00,19.0,18.0,29.81,West,280,7.0,-999.0,92,-99.99,,,-99.99,,2013-03-03 14:02:00,
2013-03-03 09:11:00,19.0,18.0,29.81,West,260,6.0,-999.0,92,-99.99,,,-99.99,,2013-03-03 14:11:00,
2013-03-03 09:21:00,19.0,16.0,29.80,West,270,9.0,-999.0,85,-99.99,,,-99.99,,2013-03-03 14:21:00,
2013-03-03 09:32:00,19.0,16.0,29.80,West,270,9.0,-999.0,85,-99.99,,,-99.99,,2013-03-03 14:32:00,
2013-03-03 09:42:00,19.0,16.0,29.80,West,280,7.0,-999.0,85,-99.99,,,-99.99,,2013-03-03 14:42:00,
2013-03-03 09:52:00,19.0,16.0,29.80,West,280,8.0,-999.0,85,-99.99,,,-99.99,,2013-03-03 14:52:00,
2013-03-03 10:02:00,19.0,16.0,29.80,West,280,8.0,-999.0,85,-99.99,,,-99.99,,2013-03-03 15:02:00,
2013-03-03 10:11:00,19.0,16.0,29.80,West,270,8.0,-999.0,85,-99.99,,,-99.99,,2013-03-03 15:11:00,
2013-03-03 10:22:00,21.0,16.0,29.80,West,280,7.0,-999.0,79,-99.99,,,-99.99,,2013-03-03 15:22:00,
2013-03-03 10:32:00,21.0,16.0,29.80,WNW,290,8.0,-999.0,79,-99.99,,,-99.99,,2013-03-03 15:32:00,
2013-03-03 10:42:00,21.0,16.0,29.80,West,260,7.0,-999.0,79,-99.99,,,-99.99,,2013-03-03 15:42:00,
2013-03-03 10:52:00,21.0,16.0,29.80,West,260,6.0,-999.0,79,-99.99,,,-99.99,,2013-03-03 15:52:00,
2013-03-03 11:02:00,21.0,16.0,29.80,West,260,6.0,-999.0,79,-99.99,,,-99.99,,2013-03-03 16:02:00,
2013-03-03 11:12:00,21.0,16.0,29.80,West,260,8.0,-999.0,79,-99.99,,,-99.99,,2013-03-03 16:12:00,
2013-03-03 11:22:00,21.0,18.0,29.80,West,270,8.0,-999.0,85,-99.99,,,-99.99,,2013-03-03 16:22:00,
2013-03-03 11:32:00,21.0,18.0,29.80,West,270,9.0,-999.0,85,-99.99,,,-99.99,,2013-03-03 16:32:00,
2013-03-03 11:42:00,21.0,18.0,29.80,West,270,8.0,-999.0,85,-99.99,,,-99.99,,2013-03-03 16:42:00,
2013-03-03 11:52:00,21.0,18.0,29.79,West,260,10.0,-999.0,85,-99.99,,,-99.99,,2013-03-03 16:52:00,
2013-03-03 12:01:00,21.0,18.0,29.79,West,260,10.0,-999.0,85,-99.99,,,-99.99,,2013-03-03 17:01:00,
2013-03-03 12:11:00,23.0,18.0,29.79,West,280,10.0,-999.0,79,-99.99,,,-99.99,,2013-03-03 17:11:00,
2013-03-03 12:22:00,23.0,18.0,29.79,West,280,10.0,17.0,79,-99.99,,,-99.99,,2013-03-03 17:22:00,
2013-03-03 12:32:00,23.0,18.0,29.79,West,280,8.0,-999.0,79,-99.99,,,-99.99,,2013-03-03 17:32:00,
2013-03-03 12:42:00,23.0,18.0,29.79,West,280,12.0,-999.0,79,-99.99,,,-99.99,,2013-03-03 17:42:00,
2013-03-03 12:52:00,23.0,18.0,29.78,West,270,10.0,-999.0,79,-99.99,,,-99.99,,2013-03-03 17:52:00,
2013-03-03 13:02:00,23.0,18.0,29.78,West,270,10.0,-999.0,79,-99.99,,,-99.99,,2013-03-03 18:02:00,
2013-03-03 13:11:00,23.0,18.0,29.77,West,260,10.0,-999.0,79,-99.99,,,-99.99,,2013-03-03 18:11:00,
2013-03-03 13:21:00,25.0,18.0,29.77,West,260,10.0,-999.0,73,-99.99,,,-99.99,,2013-03-03 18:21:00,
2013-03-03 13:32:00,25.0,18.0,29.76,WNW,290,10.0,-999.0,73,-99.99,,,-99.99,,2013-03-03 18:32:00,
2013-03-03 13:42:00,25.0,18.0,29.76,West,270,9.0,-999.0,73,-99.99,,,-99.99,,2013-03-03 18:42:00,
2013-03-03 13:52:00,25.0,18.0,29.76,West,280,9.0,-999.0,73,-99.99,,,-99.99,,2013-03-03 18:52:00,
2013-03-03 14:02:00,25.0,18.0,29.76,West,280,9.0,-999.0,73,-99.99,,,-99.99,,2013-03-03 19:02:00,
2013-03-03 14:11:00,25.0,18.0,29.76,West,280,9.0,-999.0,73,-99.99,,,-99.99,,2013-03-03 19:11:00,
2013-03-03 14:22:00,25.0,18.0,29.76,West,280,9.0,-999.0,73,-99.99,,,-99.99,,2013-03-03 19:22:00,
2013-03-03 14:32:00,25.0,18.0,29.76,West,270,9.0,-999.0,73,-99.99,,,-99.99,,2013-03-03 19:32:00,
2013-03-03 14:42:00,25.0,18.0,29.76,West,280,10.0,-999.0,73,-99.99,,,-99.99,,2013-03-03 19:42:00,
2013-03-03 14:52:00,25.0,18.0,29.76,West,270,9.0,-999.0,73,-99.99,,,-99.99,,2013-03-03 19:52:00,
2013-03-03 15:01:00,25.0,18.0,29.76,West,270,9.0,-999.0,73,-99.99,,,-99.99,,2013-03-03 20:01:00,
2013-03-03 15:11:00,25.0,18.0,29.76,West,280,9.0,-999.0,73,-99.99,,,-99.99,,2013-03-03 20:11:00,
2013-03-03 15:21:00,25.0,18.0,29.76,West,260,9.0,16.0,73,-99.99,,,-99.99,,2013-03-03 20:21:00,
2013-03-03 15:32:00,25.0,18.0,29.76,West,260,9.0,-999.0,73,-99.99,,,-99.99,,2013-03-03 20:32:00,
2013-03-03 15:42:00,25.0,18.0,29.76,West,270,10.0,-999.0,73,-99.99,,,-99.99,,2013-03-03 20:42:00,
2013-03-03 15:52:00,25.0,18.0,29.76,West,270,9.0,-999.0,73,-99.99,,,-99.99,,2013-03-03 20:52:00,
2013-03-03 16:02:00,25.0,18.0,29.76,West,270,9.0,-999.0,73,-99.99,,,-99.99,,2013-03-03 21:02:00,
2013-03-03 16:11:00,25.0,18.0,29.76,West,260,12.0,-999.0,73,-99.99,,,-99.99,,2013-03-03 21:11:00,
2013-03-03 16:22:00,25.0,18.0,29.76,West,270,10.0,-999.0,73,-99.99,,,-99.99,,2013-03-03 21:22:00,
2013-03-03 16:32:00,25.0,18.0,29.76,West,280,10.0,-999.0,73,-99.99,,,-99.99,,2013-03-03 21:32:00,
2013-03-03 16:42:00,25.0,18.0,29.77,West,280,9.0,-999.0,73,-99.99,,,-99.99,,2013-03-03 21:42:00,
2013-03-03 16:52:00,25.0,18.0,29.77,West,270,12.0,-999.0,73,-99.99,,,-99.99,,2013-03-03 21:52:00,
2013-03-03 17:02:00,25.0,18.0,29.77,West,270,12.0,-999.0,73,-99.99,,,-99.99,,2013-03-03 22:02:00,
2013-03-03 17:11:00,25.0,18.0,29.77,West,280,10.0,-999.0,73,-99.99,,,-99.99,,2013-03-03 22:11:00,
2013-03-03 17:22:00,25.0,18.0,29.78,West,270,12.0,-999.0,73,-99.99,,,-99.99,,2013-03-03 22:22:00,
2013-03-03 17:32:00,25.0,18.0,29.78,West,270,10.0,-999.0,73,-99.99,,,-99.99,,2013-03-03 22:32:00,
2013-03-03 17:42:00,25.0,18.0,29.78,West,280,10.0,-999.0,73,-99.99,,,-99.99,,2013-03-03 22:42:00,
2013-03-03 17:52:00,25.0,18.0,29.78,West,280,9.0,-999.0,73,-99.99,,,-99.99,,2013-03-03 22:52:00,
2013-03-03 18:01:00,25.0,18.0,29.78,West,280,9.0,-999.0,73,-99.99,,,-99.99,,2013-03-03 23:01:00,
2013-03-03 18:11:00,25.0,18.0,29.78,WNW,290,9.0,-999.0,73,-99.99,,,-99.99,,2013-03-03 23:11:00,
2013-03-03 18:21:00,25.0,19.0,29.78,West,280,10.0,-999.0,79,-99.99,,,-99.99,,2013-03-03 23:21:00,
2013-03-03 18:32:00,25.0,19.0,29.79,West,280,8.0,-999.0,79,-99.99,,,-99.99,,2013-03-03 23:32:00,
2013-03-03 18:42:00,25.0,19.0,29.79,West,280,9.0,-999.0,79,-99.99,,,-99.99,,2013-03-03 23:42:00,
2013-03-03 18:52:00,25.0,19.0,29.79,NW,310,6.0,-999.0,79,-99.99,,,-99.99,,2013-03-03 23:52:00,
2013-03-03 19:02:00,25.0,19.0,29.79,NW,310,6.0,-999.0,79,-99.99,,,-99.99,,2013-03-04 00:02:00,
2013-03-03 19:11:00,25.0,19.0,29.80,WNW,290,7.0,-999.0,79,-99.99,,,-99.99,,2013-03-04 00:11:00,
2013-03-03 19:21:00,25.0,19.0,29.80,West,280,7.0,-999.0,79,-99.99,,,-99.99,,2013-03-04 00:21:00,
2013-03-03 19:32:00,23.0,19.0,29.80,West,280,6.0,-999.0,85,-99.99,,,-99.99,,2013-03-04 00:32:00,
2013-03-03 19:42:00,23.0,19.0,29.80,West,280,7.0,-999.0,85,-99.99,,,-99.99,,2013-03-04 00:42:00,
2013-03-03 19:52:00,23.0,19.0,29.80,West,280,8.0,-999.0,85,-99.99,,,-99.99,,2013-03-04 00:52:00,
2013-03-03 20:01:00,23.0,19.0,29.80,West,280,8.0,-999.0,85,-99.99,,,-99.99,,2013-03-04 01:01:00,
2013-03-03 20:11:00,23.0,19.0,29.80,West,280,9.0,-999.0,85,-99.99,,,-99.99,,2013-03-04 01:11:00,
2013-03-03 20:21:00,23.0,19.0,29.80,West,280,9.0,-999.0,85,-99.99,,,-99.99,,2013-03-04 01:21:00,
2013-03-03 20:32:00,23.0,19.0,29.80,West,280,8.0,-999.0,85,-99.99,,,-99.99,,2013-03-04 01:32:00,
2013-03-03 20:42:00,23.0,19.0,29.80,West,280,8.0,-999.0,85,-99.99,,,-99.99,,2013-03-04 01:42:00,
2013-03-03 20:52:00,23.0,19.0,29.80,West,260,7.0,-999.0,85,-99.99,,,-99.99,,2013-03-04 01:52:00,
2013-03-03 21:01:00,23.0,19.0,29.80,West,260,7.0,-999.0,85,-99.99,,,-99.99,,2013-03-04 02:01:00,
2013-03-03 21:11:00,23.0,19.0,29.80,West,260,9.0,-999.0,85,-99.99,,,-99.99,,2013-03-04 02:11:00,
2013-03-03 21:22:00,21.0,19.0,29.80,West,270,9.0,-999.0,92,-99.99,,,-99.99,,2013-03-04 02:22:00,
2013-03-03 21:32:00,21.0,19.0,29.80,West,260,7.0,-999.0,92,-99.99,,,-99.99,,2013-03-04 02:32:00,
2013-03-03 21:42:00,21.0,19.0,29.80,WSW,250,7.0,-999.0,92,-99.99,,,-99.99,,2013-03-04 02:42:00,
2013-03-03 21:52:00,21.0,19.0,29.80,WSW,250,8.0,-999.0,92,-99.99,,,-99.99,,2013-03-04 02:52:00,
2013-03-03 22:02:00,21.0,19.0,29.80,WSW,250,8.0,-999.0,92,-99.99,,,-99.99,,2013-03-04 03:02:00,
2013-03-03 22:11:00,21.0,19.0,29.79,West,270,8.0,-999.0,92,-99.99,,,-99.99,,2013-03-04 03:11:00,
2013-03-03 22:22:00,21.0,19.0,29.79,West,260,8.0,-999.0,92,-99.99,,,-99.99,,2013-03-04 03:22:00,
2013-03-03 22:32:00,21.0,19.0,29.78,West,260,8.0,-999.0,92,-99.99,,,-99.99,,2013-03-04 03:32:00,
2013-03-03 22:42:00,21.0,19.0,29.78,West,260,9.0,-999.0,92,-99.99,,,-99.99,,2013-03-04 03:42:00,
2013-03-03 22:52:00,21.0,19.0,29.78,West,260,9.0,-999.0,92,-99.99,,,-99.99,,2013-03-04 03:52:00,
2013-03-03 23:01:00,21.0,19.0,29.78,West,260,9.0,-999.0,92,-99.99,,,-99.99,,2013-03-04 04:01:00,
2013-03-03 23:11:00,21.0,19.0,29.77,West,270,8.0,-999.0,92,-99.99,,,-99.99,,2013-03-04 04:11:00,
2013-03-03 23:22:00,21.0,19.0,29.77,West,270,7.0,-999.0,92,-99.99,,,-99.99,,2013-03-04 04:22:00,
2013-03-03 23:32:00,21.0,19.0,29.77,West,270,9.0,-999.0,92,-99.99,,,-99.99,,2013-03-04 04:32:00,
2013-03-03 23:42:00,23.0,19.0,29.77,West,270,8.0,-999.0,85,-99.99,,,-99.99,,2013-03-04 04:42:00,
2013-03-03 23:52:00,23.0,19.0,29.77,West,270,9.0,-999.0,85,-99.99,,,-99.99,,2013-03-04 04:52:00,